IK3XJT Weather Reports


time (UTC)temp
C
wind
direction
speed
KPH
gust
KPH
rain 1hr
cm
rain 24hr
cm
rain mn
cm
humidity
%
barometer
mb
20260507093846 21 273 6.4 12.9 0.00 2.21 0.03 60 1011.2
20260507092841 20 263 6.4 12.9 0.00 2.21 0.03 63 1011.1
20260507092342 21 263 0.0 11.3 0.00 2.21 0.03 64 1011.1
20260507091905 21 263 4.8 11.3 0.00 2.21 0.03 65 1011.2
20260507091406 20 270 1.6 9.7 0.00 2.21 0.03 64 1011.2
20260507090905 20 273 0.0 6.4 0.00 2.21 0.03 64 1011.2
20260507090347 20 273 0.0 6.4 0.00 2.31 0.03 67 1011.2
20260507085848 19 274 0.0 0.0 0.00 2.31 0.03 74 1011.2
20260507085327 19 274 0.0 8.0 0.00 2.31 0.03 74 1011.2
20260507084828 19 274 0.0 8.0 0.00 2.31 0.03 74 1011.1
20260507083843 19 281 4.8 9.7 0.00 2.31 0.03 71 1011.1
20260507083322 20 275 1.6 6.4 0.00 2.31 0.03 73 1011.1
20260507082843 19 279 4.8 11.3 0.00 2.31 0.03 73 1011.1
20260507082314 19 279 4.8 11.3 0.00 2.31 0.03 73 1011.1
20260507081838 19 281 3.2 9.7 0.00 2.31 0.03 76 1011.1
20260507081401 18 284 0.0 8.0 0.00 2.31 0.03 78 1011.1
20260507080900 18 284 0.0 11.3 0.00 2.31 0.03 77 1011.1
20260507080406 18 283 6.4 11.3 0.00 2.31 0.03 78 1011.0
20260507075906 18 67 0.0 8.0 0.00 2.31 0.03 80 1011.0
20260507075325 18 67 0.0 8.0 0.00 2.31 0.03 80 1011.0
20260507074828 19 76 0.0 6.4 0.00 2.31 0.03 82 1010.9
20260507074316 19 76 3.2 8.0 0.00 2.31 0.03 83 1010.9
20260507073838 18 78 3.2 8.0 0.00 2.31 0.03 84 1010.9
20260507073343 18 78 0.0 0.0 0.00 2.31 0.03 88 1010.8
20260507072845 18 78 0.0 0.0 0.00 2.31 0.03 89 1010.8
20260507072349 17 78 0.0 0.0 0.00 2.31 0.03 91 1010.8
20260507071320 17 78 0.0 0.0 0.00 2.31 0.03 92 1010.7
20260507070821 17 78 0.0 0.0 0.00 2.31 0.03 93 1010.7
20260507070326 17 78 0.0 0.0 0.00 2.31 0.03 94 1010.7
20260507065826 17 78 0.0 0.0 0.00 2.31 0.03 95 1010.7
20260507065327 16 78 0.0 0.0 0.00 2.31 0.03 95 1010.7
20260507064830 16 78 0.0 6.4 0.00 2.31 0.03 96 1010.6
20260507064311 16 78 0.0 6.4 0.00 2.31 0.03 96 1010.6
20260507063818 15 82 0.0 0.0 0.00 2.31 0.03 96 1010.6
20260507063322 15 82 0.0 0.0 0.00 2.31 0.03 96 1010.6
20260507062822 15 82 0.0 0.0 0.00 2.31 0.03 96 1010.6
20260507062346 15 82 0.0 0.0 0.00 2.31 0.03 96 1010.6
20260507061826 15 82 0.0 0.0 0.00 2.31 0.03 96 1010.6
20260507061350 15 82 0.0 0.0 0.00 2.31 0.03 96 1010.6
20260507060820 15 82 0.0 0.0 0.00 2.31 0.03 96 1010.6
20260507060410 15 82 0.0 0.0 0.00 2.39 0.03 96 1010.6
20260507055838 15 82 0.0 0.0 0.00 2.39 0.03 96 1010.6
20260507055326 15 82 0.0 0.0 0.00 2.39 0.03 96 1010.6
20260507054853 15 82 0.0 0.0 0.00 2.39 0.03 96 1010.4
20260507054332 15 82 0.0 0.0 0.00 2.39 0.03 96 1010.4
20260507053815 15 82 0.0 0.0 0.00 2.39 0.03 96 1010.4
20260507053406 15 82 0.0 0.0 0.00 2.39 0.03 96 1010.1
20260507052825 15 82 0.0 0.0 0.00 2.39 0.03 96 1010.1
20260507052325 15 82 0.0 0.0 0.00 2.39 0.03 96 1010.1
20260507051343 14 89 0.0 0.0 0.00 2.39 0.03 96 1010.1
20260507050812 14 89 0.0 0.0 0.00 2.39 0.03 96 1010.1
20260507050341 14 89 0.0 0.0 0.00 2.49 0.03 96 1009.9
20260507045847 14 89 0.0 0.0 0.00 2.49 0.03 96 1009.9
20260507045330 14 89 0.0 0.0 0.00 2.49 0.03 96 1009.9
20260507044910 14 89 0.0 0.0 0.00 2.49 0.03 96 1009.6
20260507044352 14 89 0.0 0.0 0.00 2.49 0.03 96 1009.6
20260507043816 14 89 0.0 0.0 0.00 2.49 0.03 96 1009.6
20260507043316 14 89 0.0 0.0 0.00 2.49 0.03 96 1009.5
20260507042346 14 89 0.0 0.0 0.00 2.49 0.03 96 1009.5
20260507041812 14 89 0.0 0.0 0.00 2.49 0.03 96 1009.2
20260507041339 14 89 0.0 0.0 0.00 2.49 0.03 96 1009.2
20260507040924 14 89 0.0 0.0 0.00 2.49 0.03 96 1009.2
20260507040408 14 89 0.0 0.0 0.00 2.49 0.03 96 1009.1
20260507035906 14 89 0.0 0.0 0.00 2.49 0.03 96 1009.1
20260507035327 14 89 0.0 0.0 0.10 2.49 0.03 96 1009.1
20260507034914 14 89 0.0 0.0 0.10 2.49 0.03 96 1009.1
20260507034354 14 89 0.0 0.0 0.10 2.49 0.03 96 1009.1
20260507033934 14 89 0.0 0.0 0.10 2.49 0.03 96 1009.1
20260507033412 14 89 0.0 0.0 0.10 2.49 0.03 96 1009.1
20260507032814 14 98 0.0 0.0 0.10 2.49 0.03 96 1009.1
20260507032338 14 98 0.0 0.0 0.10 2.49 0.03 96 1009.1
20260507031819 14 98 0.0 0.0 0.10 2.49 0.03 96 1009.0
20260507031323 14 98 0.0 0.0 0.10 2.49 0.03 96 1009.0
20260507030829 14 98 0.0 0.0 0.10 2.49 0.03 96 1009.0
20260507025859 14 98 0.0 0.0 0.10 2.49 0.03 96 1009.0
20260507025318 14 102 0.0 0.0 0.00 2.39 0.00 96 1009.0
20260507024841 14 105 0.0 0.0 0.00 2.39 0.00 95 1009.1
20260507024323 14 105 0.0 0.0 0.00 2.39 0.00 95 1009.1
20260507023904 14 105 0.0 0.0 0.00 2.39 0.00 95 1009.1
20260507023323 14 105 0.0 0.0 0.00 2.39 0.00 95 1009.2
20260507022823 14 106 0.0 0.0 0.00 2.39 0.00 95 1009.2
20260507022408 14 107 0.0 0.0 0.00 2.39 0.00 95 1009.2
20260507021848 14 117 0.0 0.0 0.00 2.39 0.00 95 1009.0
20260507021350 13 117 0.0 0.0 0.00 2.39 0.00 96 1009.0
20260507020910 13 117 0.0 0.0 0.00 2.39 0.00 96 1009.0
20260507020335 13 117 0.0 0.0 0.00 2.39 0.00 95 1009.0
20260507015815 13 117 0.0 0.0 0.00 2.39 0.00 95 1009.0
20260507015436 13 117 0.0 0.0 0.00 2.39 0.00 95 1009.0
20260507014814 13 117 0.0 0.0 0.00 2.39 0.00 95 1009.0
20260507014317 13 117 0.0 0.0 0.00 2.39 0.00 95 1009.0
20260507013329 13 117 0.0 0.0 0.00 2.39 0.00 95 1009.0
20260507012830 13 117 0.0 0.0 0.00 2.39 0.00 95 1009.0
20260507012352 13 117 0.0 0.0 0.00 2.39 0.00 95 1009.0
20260507011914 13 117 0.0 0.0 0.00 2.39 0.00 95 1009.0
20260507011353 13 117 0.0 0.0 0.00 2.39 0.00 95 1009.0
20260507010933 13 117 0.0 0.0 0.00 2.39 0.00 95 1009.0
20260507005907 13 117 0.0 0.0 0.00 2.39 0.00 95 1009.0
20260507005326 13 117 0.0 0.0 0.00 2.39 0.00 95 1009.0
20260507004853 13 117 0.0 0.0 0.00 2.39 0.00 95 1009.0
20260507004313 13 117 0.0 0.0 0.00 2.39 0.00 95 1009.0
20260507003904 13 117 0.0 0.0 0.00 2.39 0.00 95 1009.0
20260507003332 13 117 0.0 0.0 0.00 2.39 0.00 95 1008.9
20260507002849 13 117 0.0 0.0 0.00 2.39 0.00 95 1008.9
20260507002328 13 117 0.0 0.0 0.00 2.39 0.00 95 1008.9
20260507001829 13 117 0.0 0.0 0.00 2.39 0.00 95 1009.0
20260507001310 14 117 0.0 0.0 0.00 2.39 0.00 95 1009.0
20260507000838 14 117 0.0 0.0 0.00 2.39 0.00 95 1009.0
20260507000343 14 117 0.0 0.0 0.00 2.39 0.00 95 1009.0
20260506235824 14 117 0.0 0.0 0.00 2.39 0.00 95 1009.0
20260506235327 14 117 0.0 0.0 0.00 2.39 0.00 95 1009.0
20260506234814 14 117 0.0 0.0 0.00 2.39 0.00 95 1009.0
20260506234338 14 117 0.0 0.0 0.00 2.39 0.00 95 1009.0
20260506233346 14 117 0.0 0.0 0.00 2.39 0.00 95 1009.0
20260506232831 14 117 0.0 0.0 0.00 2.39 0.00 95 1009.0
20260506232315 14 117 0.0 0.0 0.00 2.39 0.00 95 1009.0
20260506231856 14 117 0.0 0.0 0.00 2.39 0.00 95 1008.8
20260506231355 14 117 0.0 0.0 0.00 2.39 0.00 95 1008.8
20260506230900 14 117 0.0 0.0 0.00 2.39 0.00 95 1008.8
20260506230417 14 117 0.0 0.0 0.00 2.39 0.00 95 1009.0
20260506225820 14 117 0.0 0.0 0.00 2.39 0.00 95 1009.0
20260506225326 14 117 0.0 0.0 0.00 2.39 0.00 95 1009.0
20260506224810 14 117 0.0 0.0 0.00 2.39 0.00 95 1009.0
20260506224316 14 117 0.0 0.0 0.00 2.39 0.00 95 1009.0
20260506223817 14 117 0.0 0.0 0.00 2.39 0.00 95 1009.0
20260506223341 15 117 0.0 0.0 0.00 2.39 0.00 95 1009.0
20260506222853 15 117 0.0 0.0 0.00 2.39 0.00 95 1009.0
20260506222333 15 117 0.0 0.0 0.00 2.39 0.00 95 1009.0
20260506221813 15 117 0.0 0.0 0.00 2.39 0.00 95 1008.9
20260506221317 15 117 0.0 0.0 0.00 2.39 0.00 95 1008.9
20260506220842 15 117 0.0 0.0 0.00 2.39 0.00 95 1008.9
20260506220401 15 117 0.0 0.0 0.00 2.39 0.48 95 1008.9
20260506215823 15 117 0.0 0.0 0.00 2.39 0.48 95 1008.9
20260506215324 15 117 0.0 0.0 0.00 2.39 0.48 95 1008.9
20260506214824 15 117 0.0 0.0 0.00 2.39 0.48 95 1008.7
20260506214405 15 117 0.0 0.0 0.00 2.39 0.48 95 1008.7
20260506213836 15 117 0.0 0.0 0.00 2.39 0.48 94 1008.7
20260506213334 15 117 0.0 0.0 0.00 2.39 0.48 94 1008.9
20260506212845 15 117 0.0 0.0 0.00 2.39 0.48 94 1008.9
20260506211833 15 117 0.0 0.0 0.00 2.39 0.48 95 1008.9
20260506211334 15 117 0.0 0.0 0.00 2.39 0.48 94 1008.9
20260506210816 15 118 0.0 0.0 0.00 2.39 0.48 94 1008.9
20260506210319 15 121 0.0 0.0 0.00 2.39 0.48 94 1008.7
20260506205818 15 121 0.0 0.0 0.00 2.39 0.48 94 1008.7
20260506205356 15 121 0.0 0.0 0.00 2.39 0.48 94 1008.7
20260506204359 15 121 0.0 0.0 0.00 2.39 0.48 94 1008.8
20260506203853 15 121 0.0 0.0 0.00 2.39 0.48 94 1008.8
20260506203351 15 121 0.0 0.0 0.00 2.39 0.48 94 1008.8
20260506202910 15 121 0.0 0.0 0.00 2.39 0.48 94 1008.8
20260506202408 15 123 0.0 0.0 0.00 2.39 0.48 94 1008.8
20260506201826 15 123 0.0 0.0 0.00 2.39 0.48 94 1008.5
20260506201319 16 123 0.0 0.0 0.00 2.39 0.48 94 1008.5
20260506200826 16 123 0.0 0.0 0.00 2.39 0.48 94 1008.5
20260506200318 16 123 0.0 0.0 0.00 2.39 0.48 94 1008.5
20260506195827 16 123 0.0 0.0 0.00 2.39 0.48 94 1008.5
20260506195314 16 123 0.0 0.0 0.00 2.39 0.48 94 1008.5
20260506194817 16 123 0.0 0.0 0.00 2.39 0.48 94 1008.4
20260506194321 16 123 0.0 0.0 0.00 2.39 0.48 94 1008.4
20260506193927 16 123 0.0 0.0 0.00 2.39 0.48 93 1008.4
20260506193844 16 123 0.0 0.0 0.00 2.39 0.48 93 1008.4
20260506193334 16 123 0.0 0.0 0.00 2.39 0.48 94 1008.2
20260506192922 16 123 0.0 0.0 0.00 2.39 0.48 94 1008.2
20260506192329 16 123 0.0 0.0 0.00 2.39 0.48 93 1008.2
20260506191819 16 123 0.0 0.0 0.00 2.39 0.48 93 1008.1
20260506191323 16 126 0.0 0.0 0.00 2.39 0.48 93 1008.1
20260506190925 16 136 0.0 0.0 0.00 2.39 0.48 93 1008.1
20260506190402 16 137 0.0 0.0 0.00 2.39 0.48 93 1008.0
20260506185823 16 147 0.0 0.0 0.00 2.39 0.48 93 1008.0
20260506185331 16 153 0.0 0.0 0.00 2.39 0.48 93 1008.0
20260506184819 16 153 0.0 0.0 0.00 2.39 0.48 93 1008.0
20260506184323 16 153 0.0 0.0 0.00 2.39 0.48 93 1008.0
20260506183829 16 153 0.0 0.0 0.00 2.39 0.48 93 1008.0
20260506182858 16 153 0.0 0.0 0.00 2.39 0.48 92 1007.8
20260506182417 16 153 0.0 0.0 0.00 2.39 0.48 92 1007.8
20260506181855 17 153 0.0 0.0 0.00 2.39 0.48 92 1007.6
20260506181325 17 153 0.0 0.0 0.00 2.39 0.48 92 1007.6
20260506180825 17 153 0.0 0.0 0.00 2.39 0.48 92 1007.6
20260506180426 17 153 0.0 0.0 0.00 2.39 0.48 91 1007.4
20260506180343 17 153 0.0 0.0 0.00 2.39 0.48 91 1007.4
20260506175904 17 153 0.0 0.0 0.00 2.39 0.48 91 1007.4
20260506175328 17 153 0.0 0.0 0.00 2.39 0.48 91 1007.4
20260506174850 17 153 0.0 0.0 0.00 2.39 0.48 91 1007.5
20260506174414 17 153 0.0 0.0 0.00 2.39 0.48 91 1007.5
20260506173913 17 153 0.0 0.0 0.00 2.39 0.48 90 1007.5
20260506173431 17 153 0.0 0.0 0.00 2.39 0.48 90 1007.5
20260506172850 17 153 0.0 0.0 0.00 2.39 0.48 90 1007.5
20260506172338 17 153 0.0 0.0 0.00 2.39 0.48 90 1007.5
20260506171838 17 153 0.0 0.0 0.00 2.39 0.48 90 1007.4
20260506171328 17 153 0.0 0.0 0.00 2.39 0.48 89 1007.4
20260506170813 17 153 0.0 0.0 0.00 2.39 0.48 89 1007.4
20260506170318 17 153 0.0 0.0 0.00 2.39 0.48 89 1007.4
20260506165819 17 153 0.0 0.0 0.00 2.39 0.48 89 1007.4
20260506165420 17 153 0.0 0.0 0.00 2.39 0.48 89 1007.4
20260506164823 17 153 0.0 0.0 0.00 2.39 0.48 89 1007.5
20260506164323 17 153 0.0 0.0 0.00 2.39 0.48 89 1007.5
20260506163827 17 153 0.0 0.0 0.00 2.39 0.48 89 1007.5
20260506163425 17 153 0.0 6.4 0.00 2.39 0.48 89 1007.6
20260506162828 17 153 3.2 6.4 0.00 2.39 0.48 89 1007.6
20260506162333 17 154 1.6 9.7 0.00 2.39 0.48 89 1007.6
20260506161930 17 154 3.2 9.7 0.00 2.39 0.48 90 1007.5
20260506161327 17 155 3.2 11.3 0.00 2.39 0.48 90 1007.5
20260506160911 17 156 1.6 11.3 0.00 2.39 0.48 91 1007.5
20260506160332 17 132 0.0 0.0 0.00 2.49 0.48 91 1007.5
20260506155935 17 130 0.0 0.0 0.00 2.49 0.48 91 1007.5
20260506155322 16 128 0.0 0.0 0.00 2.49 0.48 91 1007.5
20260506154903 16 128 0.0 0.0 0.00 2.49 0.48 92 1007.3
20260506154820 16 128 0.0 0.0 0.00 2.49 0.48 92 1007.3
20260506154324 16 128 0.0 0.0 0.00 2.49 0.48 92 1007.3
20260506153852 16 128 0.0 0.0 0.00 2.49 0.48 93 1007.3
20260506153432 16 128 0.0 0.0 0.00 2.49 0.48 93 1007.5
20260506152910 16 128 0.0 0.0 0.00 2.49 0.48 93 1007.5
20260506152326 16 124 0.0 0.0 0.00 2.49 0.48 93 1007.5
20260506151825 16 124 0.0 0.0 0.00 2.49 0.48 93 1007.5
20260506151330 16 124 0.0 0.0 0.00 2.49 0.48 93 1007.5
20260506150405 16 123 1.6 8.0 0.20 2.59 0.48 93 1007.4
20260506145840 17 115 0.0 0.0 0.41 2.59 0.48 93 1007.4
20260506145339 17 91 0.0 0.0 0.51 2.59 0.48 93 1007.4
20260506144819 16 91 0.0 0.0 0.61 2.59 0.48 93 1007.5
20260506144419 16 91 0.0 9.7 0.79 2.59 0.48 93 1007.5
20260506143837 16 91 4.8 9.7 0.99 2.59 0.48 93 1007.5
20260506143319 16 88 0.0 9.7 1.30 2.59 0.48 93 1007.3
20260506142840 16 88 0.0 9.7 1.40 2.59 0.48 93 1007.3
20260506142419 16 90 4.8 11.3 1.50 2.59 0.48 93 1007.3
20260506141819 16 91 4.8 11.3 1.70 2.59 0.48 93 1007.7
20260506141326 16 99 4.8 11.3 1.80 2.59 0.48 93 1007.7
20260506140833 16 104 6.4 11.3 1.70 2.49 0.46 92 1007.7
20260506140333 16 98 6.4 11.3 1.60 2.39 0.43 92 1008.0
20260506135816 17 132 0.0 0.0 1.40 2.21 0.41 92 1008.0
20260506135317 17 132 0.0 0.0 1.30 2.11 0.38 91 1008.0
20260506134821 17 134 0.0 6.4 1.19 2.01 0.36 91 1008.0
20260506133832 17 130 0.0 8.0 0.79 1.60 0.28 90 1008.0
20260506133333 17 130 1.6 9.7 0.51 1.30 0.23 89 1008.1
20260506132817 17 131 4.8 11.3 0.41 1.19 0.20 89 1008.1
20260506132339 17 129 6.4 11.3 0.20 0.99 0.15 88 1008.1
20260506131822 17 127 0.0 12.9 0.10 0.89 0.15 87 1008.1
20260506131349 17 128 4.8 12.9 0.00 0.79 0.13 87 1008.1
20260506130857 17 108 3.2 11.3 0.00 0.79 0.13 87 1008.1
20260506130416 17 170 8.0 11.3 0.00 0.79 0.13 86 1008.3
20260506125818 17 128 4.8 12.9 0.00 0.79 0.13 87 1008.3
20260506125323 17 124 6.4 16.1 0.00 0.79 0.13 86 1008.3
20260506124849 17 110 6.4 16.1 0.00 0.79 0.13 86 1008.3
20260506124406 17 177 4.8 12.9 0.00 0.79 0.13 87 1008.3
20260506123845 17 148 6.4 12.9 0.00 0.79 0.13 86 1008.3
20260506123314 17 163 6.4 14.5 0.00 0.79 0.13 87 1008.3
20260506122938 17 131 4.8 19.3 0.00 0.79 0.13 86 1008.3
20260506122315 17 130 8.0 19.3 0.00 0.79 0.13 86 1008.3
20260506121330 17 101 6.4 12.9 0.00 0.79 0.13 88 1008.5
20260506120931 17 139 1.6 9.7 0.00 0.79 0.13 88 1008.5
20260506120352 17 132 4.8 9.7 0.00 0.99 0.13 88 1008.5
20260506115834 17 123 1.6 8.0 0.00 0.99 0.13 89 1008.5
20260506115314 17 163 0.0 0.0 0.10 0.99 0.13 89 1008.5
20260506114842 17 171 0.0 0.0 0.10 0.99 0.13 89 1008.7
20260506114407 17 171 0.0 0.0 0.10 0.99 0.13 89 1008.7
20260506113905 17 173 0.0 0.0 0.10 0.99 0.13 89 1008.7
20260506113346 16 173 0.0 0.0 0.10 0.99 0.13 89 1008.9
20260506112906 17 174 0.0 0.0 0.20 0.99 0.13 92 1008.9
20260506112330 17 178 0.0 0.0 0.20 0.99 0.13 90 1008.9
20260506111911 16 180 0.0 0.0 0.20 0.99 0.13 90 1008.9
20260506111330 16 180 0.0 0.0 0.20 0.99 0.13 90 1008.9
20260506110843 16 180 0.0 0.0 0.20 0.99 0.13 90 1008.9
20260506110347 16 180 0.0 0.0 0.20 1.19 0.13 90 1009.0
20260506105830 17 181 0.0 0.0 0.20 1.19 0.13 90 1009.0
20260506104903 16 181 0.0 0.0 0.10 1.09 0.10 89 1009.2
20260506104402 16 181 0.0 0.0 0.20 1.09 0.10 89 1009.2
20260506103841 17 183 0.0 0.0 0.20 1.09 0.10 88 1009.2
20260506103403 16 178 0.0 6.4 0.10 0.99 0.08 88 1009.2
20260506102845 16 179 0.0 6.4 0.10 0.99 0.08 88 1009.2
20260506102404 16 159 0.0 0.0 0.10 0.99 0.08 88 1009.2
20260506101833 16 159 0.0 9.7 0.10 0.99 0.08 87 1009.5
20260506101335 16 159 1.6 9.7 0.10 0.99 0.08 87 1009.5
20260506100837 16 168 1.6 9.7 0.10 0.99 0.08 87 1009.5
20260506100316 16 160 4.8 9.7 0.10 1.09 0.08 87 1009.3
20260506095823 17 157 4.8 9.7 0.20 1.09 0.08 87 1009.3
20260506095351 17 159 0.0 0.0 0.20 1.09 0.08 87 1009.3
20260506094852 17 157 0.0 0.0 0.20 1.09 0.08 86 1009.3
20260506094354 17 158 0.0 0.0 0.10 0.99 0.05 85 1009.3